Other Public Products
Issued by NWS Grand Forks, ND

Home | Current Version | Previous Version | Graphics & Text | Print | Product List | Glossary On
Versions: 1 2 3 4 5 6 7 8 9 10 11 12 13 14 15 16 17 18 19 20 21 22 23 24 25 26 27 28 29 30 31 32 33 34 35 36 37 38 39 40 41 42 43 44 45 46 47 48 49 50
000
FPUS83 KFGF 250731
OPUFGF
PRAIRIE TO PINES WEATHER ROUNDUP
NATIONAL WEATHER SERVICE EASTERN NORTH DAKOTA/GRAND FORKS ND
200 AM CDT SAT OCT 25 2014

 **SATELLITE DATA USED TO AUGMENT SKY COVER AT AUTOMATED STATIONS**
 *****  WEATHER ACROSS EASTERN NORTH DAKOTA  *****

CITY           SKY/WX    TMP DP  RH WIND       PRES   REMARKS
GRAND FORKS    CLEAR     47  35  63 W8        29.95R
GRAND FORKS AF CLEAR     49  35  57 NW13      29.96R
GRAND CITY NWS   N/A     46 N/A N/A NW3         N/A
BUXTON           N/A     40  35  83 W10         N/A
DEVILS LAKE    CLEAR     45  30  57 W14       29.97R
FARGO          PTCLDY    45  31  58 W10       29.98R
WAHPETON ARPT  PTSUNNY   46  32  57 W9        30.00R
$$

 *****  WEATHER ACROSS CENTRAL AND WESTERN NORTH DAKOTA  *****

CITY           SKY/WX    TMP DP  RH WIND       PRES   REMARKS
JAMESTOWN      CLEAR     43  33  68 W8        30.02R
BISMARCK       CLOUDY    46  30  53 NW5       30.08R
MINOT          PTCLDY    44  29  55 W8        30.03S
MINOT AFB      PTCLDY    37  30  74 W9        30.02S
GARRISON         N/A     43  31  62 W8        30.05R
WILLISTON      MOCLDY    44  27  51 W6        30.07R
DICKINSON      CLOUDY    47  32  56 W7        30.09R
HETTINGER      CLOUDY    47  32  56 N3        30.12S
$$

 *****  OTHER OBSERVATIONS NORTHEAST NORTH DAKOTA  *****

CITY           SKY/WX    TMP DP  RH WIND       PRES   REMARKS
WALHALLA       FAIR      46  32  57 NW8       29.93R
LANGDON        FAIR      36  28  75 W10       29.95R
CAVALIER       FAIR      48  32  53 W14       29.92R
GRAFTON        FAIR      48  32  53 NW13G21   29.94R
CANDO          FAIR      36  32  87 W9        29.99R
FORT TOTTEN      N/A     46  33  61 NW7       29.95S
ROLLA          FAIR      48  28  46 NW17G24   29.97S
RUGBY          FAIR      34  32  93 NW8       30.01R
 ***** THE ABOVE OBSERVATIONS ARE NON NWS ARE NOT QUALITY
        CONTROLLED AND MAY MIS-REPORT RAIN FOR SNOW...
$$

 *****  OTHER OBSERVATIONS SOUTHEAST NORTH DAKOTA *****

CITY           SKY/WX    TMP DP  RH WIND       PRES   REMARKS
COOPERSTOWN    NOT AVBL
VALLEY CITY    FAIR      43  36  75 W14       30.01R
OAKES            N/A     46  36  66 W12       30.04R
GWINNER        SUNNY     52  32  46 W10       30.04R
SHEYENNE NWR     N/A     48  33  55 NW5       29.95
BUFFALO          N/A     42  30  62 W8          N/A
WYNDMERE         N/A     48  34  57 NW5         N/A
 ***** THE ABOVE OBSERVATIONS ARE NON NWS ARE NOT QUALITY
       CONTROLLED AND MAY MIS-REPORT RAIN FOR SNOW...
$$

  *****  WEATHER ACROSS NORTHERN MINNESOTA  *****

CITY           SKY/WX    TMP DP  RH WIND       PRES   REMARKS
FLAG ISLAND    CLEAR     50  36  57 W21G32    29.78R
WARROAD        CLEAR     45  36  70 W12       29.84R
ROSEAU         CLEAR     46  34  61 W10G18    29.85R
HALLOCK        CLEAR     46  32  57 NW12      29.91R
THF RVR FALLS  CLEAR     46  32  57 W12       29.92R
HALSTAD          N/A     45  30  55 W10         N/A
FOSSTON        CLEAR     39  32  75 W7        29.95R
BAUDETTE       CLEAR     50  32  50 NW8G17    29.81R
WASKISH        CLEAR     50  39  66 W12G18    29.85R
CROOKSTON      CLEAR     46  36  66 NW15      29.95R
$$
  *****  WEATHER ACROSS CENTRAL AND WEST MINNESOTA  *****

CITY           SKY/WX    TMP DP  RH WIND       PRES   REMARKS
BEMIDJI        CLEAR     50  32  51 W15G22    29.90R
PARK RAPIDS    CLEAR     51  32  48 NW16      29.92R
WADENA         CLEAR     50  34  53 W8        29.95R
DETROIT LAKES  CLEAR     50  32  50 NW12      29.97R
MOORHEAD       PTCLDY    50  30  46 W8        30.00R
FERGUS FALLS   PTCLDY    48  28  46 NW9       29.99S
ELBOW LAKE     FAIR      50  35  55 NW7       29.99R
MORRIS MN      MOCLDY    55  36  47 NW14      30.00R
STAPLES        CLEAR     50  32  50 W9        29.94R
WHEATON        CLOUDY    54  36  50 W10       30.02S
$$
  *****  WEATHER ELSEWHERE ACROSS MINNESOTA  *****

CITY           SKY/WX    TMP DP  RH WIND       PRES   REMARKS
DULUTH         CLEAR     55  34  45 W14       29.80R
INTRNTL FALLS  CLEAR     51  32  48 W16G25    29.77R
ELY            CLEAR     52  32  46 W16G25    29.74S
CLOQUET        CLEAR     52  32  46 W8        29.84R
BRAINERD       CLEAR     52  33  48 W8        29.92R
HIBBING        CLEAR     55  32  41 W10G24    29.80R
ALEXANDRIA     CLEAR     54  34  46 W12       29.98R
SAINT CLOUD    PTCLDY    58  36  43 W12       29.93R
MINNEAPOLIS    MOCLDY    60  41  49 NW12      29.92R
$$

  *****  WEATHER ACROSS SOUTH DAKOTA  *****

CITY           SKY/WX    TMP DP  RH WIND       PRES   REMARKS
SIOUX FALLS    PTCLDY    51  43  74 NW3       30.03R
BROOKINGS      NOT AVBL
WATERTOWN      CLOUDY    55  38  52 N9        30.05R
HURON          MOCLDY    50  41  71 N8        30.07R
SISSETON         N/A     59  32  36 N16       30.02R
ABERDEEN       MOCLDY    55  37  50 NW3       30.05S
MITCHELL       PTCLDY    47  39  74 NW7       30.07R
PIERRE         CLOUDY    53  35  50 N6        30.09R
MOBRIDGE       MOCLDY    54  37  52 NW7       30.07R
RAPID CITY     CLEAR     42  32  67 NW8       30.15R
$$

  *****  SOME WEATHER IN NEARBY STATES *****

CITY           SKY/WX    TMP DP  RH WIND       PRES   REMARKS
GLASGOW MT     MOCLDY    44  29  55 CALM      30.09R
GREAT FALLS MT CLOUDY    45  39  79 SE6       30.06S
CHEYENNE WY    CLEAR     52  25  35 W12       30.24S
SCOTTSBLUFF NE CLEAR     53  32  44 NE3       30.14R
OMAHA NE       CLEAR     50  49  96 NW6       30.02R
DES MOINES IA  CLEAR     53  52  96 NW5       29.99R FOG
DAVENPORT IA   FOG       55  54  96 NW7       29.95R VSB 1
CHICAGO IL     MOCLDY    57  50  77 SW7       29.89S
EAU CLAIRE WI  CLEAR     50  49  96 W3        29.88R FOG
LA CROSSE WI   CLEAR     57  55  93 S7        29.89S FOG
$$

  *****  SOME NATIONAL WEATHER *****

CITY           SKY/WX    TMP DP  RH WIND       PRES   REMARKS
LA GUARDIA NY  MOCLDY    55  37  50 NW10      29.85S
RALEIGH NC     PTCLDY    45  42  89 CALM      29.98S
ATLANTA GA     CLEAR     51  44  77 NW7       30.02F
NEW ORLEANS LA CLEAR     63  52  67 N8        30.10S
OKLAHOMA CITY  CLEAR     62  59  90 S7        30.06F
ALBUQUERQUE NM CLEAR     59  37  44 E3        30.29S
SALT LAKE CITY CLEAR     60  30  32 SE13      30.09R
LOS ANGELES CA CLEAR     67  67 100 W5        30.01R
BOISE ID       PTCLDY    46  46 100 N3        29.93F FOG
SEATTLE WA     CLOUDY    52  48  86 N8        29.74F
$$

*** WEATHER ACROSS MANITOBA...SASKATCHEWAN AND ONTARIO ***
                ***ONTARIO***

CITY           SKY/WX    TMP DP  RH WIND       PRES   REMARKS
GERALDTON      PTCLDY    48  46  93 W12G17    29.47S
THUNDER BAY    CLEAR     57  36  44 W12G18    29.61R
SIOUX LOOKOUT  CLOUDY    48  41  76 W9G21     29.61R
TORONTO        MOCLDY    52  43  71 SW5       29.87F
BIG TROUT LK   LGT RAIN  46  45  93 NW13G25   29.25R
PICKLE LAKE    NOT AVBL
DRYDEN         MOCLDY    50  36  57 W21G31    29.66R
KENORA         MOCLDY    48  34  57 NW22G31   29.75R
$$
                *** MANITOBA***

CITY           SKY/WX    TMP DP  RH WIND       PRES   REMARKS
BRANDON        CLEAR     39  32  75 W15       29.94R
DAUPHIN        CLEAR     43  30  61 W18G24    29.86R
ISLAND LAKE    LGT RAIN  43  37  81 W24G35    29.52R
PILOT MOUND      N/A     43  32  65 W9          N/A
THE PAS        PTCLDY    39  30  70 W16       29.73R
THOMPSON       CLOUDY    36  34  93 W17       29.53R
WINNIPEG       CLEAR     41  32  70 W9        29.87R
LYNN LAKE      LGT SNOW  32  30  93 W17G30    29.56R WCI  21
CHURCHILL      FOG       37  37 100 NE7       29.35S VSB 1/4
GILLAM         DRIZZLE   43  39  87 W17G25    29.40R
$$
                ***SASKATCHEWAN***

CITY           SKY/WX    TMP DP  RH WIND       PRES   REMARKS
ESTEVAN        CLEAR     34  28  80 W8        30.04R
KINDERSLEY     PTCLDY    28  25  86 S7        30.02R WCI  21
LLOYDMINSTER   CLEAR     30  23  74 W12       29.96  WCI  21
PRINCE ALBERT  PTCLDY    39  28  65 W10       29.89R
REGINA         CLEAR     34  30  86 W10       30.02R



USA.gov is the U.S. government's official web portal to all federal, state and local government web resources and services.